Time,TemperatureF,DewpointF,PressureIn,WindDirection,WindDirectionDegrees,WindSpeedMPH,WindSpeedGustMPH,Humidity,HourlyPrecipIn,Conditions,Clouds,dailyrainin,SolarRadiationWatts/m^2,SoftwareType,DateUTC
2013-08-16 00:00:00,56.0,51.0,-100.00,SW,225,0.0,-999.0,84,-99.99,,,-99.99,0.000000,,2013-08-16 04:00:00,
2013-08-16 00:43:00,56.0,51.0,-100.00,SW,225,0.0,-999.0,84,-99.99,,,-99.99,0.000000,,2013-08-16 04:43:00,
2013-08-16 00:54:00,56.0,51.0,-100.00,SW,225,0.0,-999.0,84,-99.99,,,-99.99,0.000000,,2013-08-16 04:54:00,
2013-08-16 02:00:00,53.0,50.0,-100.00,SW,225,1.0,-999.0,89,-99.99,,,-99.99,0.000000,,2013-08-16 06:00:00,
2013-08-16 03:00:00,53.0,50.0,-100.00,SW,225,1.0,-999.0,90,-99.99,,,-99.99,0.000000,,2013-08-16 07:00:00,
2013-08-16 03:42:00,53.0,50.0,-100.00,SW,225,1.0,-999.0,90,-99.99,,,-99.99,0.000000,,2013-08-16 07:42:00,
2013-08-16 03:52:00,53.0,50.0,-100.00,SW,225,1.0,-999.0,90,-99.99,,,-99.99,0.000000,,2013-08-16 07:52:00,
2013-08-16 04:00:00,53.0,51.0,-100.00,SSW,202,2.0,-999.0,90,-99.99,,,-99.99,0.000000,,2013-08-16 08:00:00,
2013-08-16 04:42:00,53.0,51.0,-100.00,SSW,202,2.0,-999.0,90,-99.99,,,-99.99,0.000000,,2013-08-16 08:42:00,
2013-08-16 04:52:00,53.0,51.0,-100.00,SSW,202,2.0,-999.0,90,-99.99,,,-99.99,0.000000,,2013-08-16 08:52:00,
2013-08-16 05:00:00,52.0,50.0,-100.00,SW,225,0.0,-999.0,91,-99.99,,,-99.99,0.000000,,2013-08-16 09:00:00,
2013-08-16 05:42:00,52.0,50.0,-100.00,SW,225,0.0,-999.0,91,-99.99,,,-99.99,0.000000,,2013-08-16 09:42:00,
2013-08-16 05:53:00,52.0,50.0,-100.00,SW,225,0.0,-999.0,91,-99.99,,,-99.99,0.000000,,2013-08-16 09:53:00,
2013-08-16 06:00:00,51.0,49.0,-100.00,WSW,247,1.0,-999.0,93,-99.99,,,-99.99,0.000000,,2013-08-16 10:00:00,
2013-08-16 06:42:00,51.0,49.0,-100.00,WSW,247,1.0,-999.0,93,-99.99,,,-99.99,0.000000,,2013-08-16 10:42:00,
2013-08-16 06:53:00,51.0,49.0,-100.00,WSW,247,1.0,-999.0,93,-99.99,,,-99.99,0.000000,,2013-08-16 10:53:00,
2013-08-16 07:00:00,51.0,49.0,-100.00,SW,225,0.0,-999.0,93,-99.99,,,-99.99,2.320000,,2013-08-16 11:00:00,
2013-08-16 07:42:00,51.0,49.0,-100.00,SW,225,0.0,-999.0,93,-99.99,,,-99.99,2.320000,,2013-08-16 11:42:00,
2013-08-16 07:52:00,51.0,49.0,-100.00,SW,225,0.0,-999.0,93,-99.99,,,-99.99,2.320000,,2013-08-16 11:52:00,
2013-08-16 08:00:00,52.0,50.0,-100.00,SW,225,1.0,-999.0,92,-99.99,,,-99.99,61.480000,,2013-08-16 12:00:00,
2013-08-16 08:42:00,52.0,50.0,-100.00,SW,225,1.0,-999.0,92,-99.99,,,-99.99,61.480000,,2013-08-16 12:42:00,
2013-08-16 08:52:00,52.0,50.0,-100.00,SW,225,1.0,-999.0,92,-99.99,,,-99.99,61.480000,,2013-08-16 12:52:00,
2013-08-16 09:00:00,57.0,51.0,-100.00,NW,315,0.0,-999.0,81,-99.99,,,-99.99,222.720001,,2013-08-16 13:00:00,
2013-08-16 09:42:00,57.0,51.0,-100.00,NW,315,0.0,-999.0,81,-99.99,,,-99.99,222.720001,,2013-08-16 13:42:00,
2013-08-16 09:53:00,57.0,51.0,-100.00,NW,315,0.0,-999.0,81,-99.99,,,-99.99,222.720001,,2013-08-16 13:53:00,
2013-08-16 10:00:00,65.0,53.0,-100.00,NW,315,1.0,-999.0,66,-99.99,,,-99.99,396.720001,,2013-08-16 14:00:00,
2013-08-16 10:42:00,65.0,53.0,-100.00,NW,315,1.0,-999.0,66,-99.99,,,-99.99,396.720001,,2013-08-16 14:42:00,
2013-08-16 10:52:00,65.0,53.0,-100.00,NW,315,1.0,-999.0,66,-99.99,,,-99.99,396.720001,,2013-08-16 14:52:00,
2013-08-16 11:00:00,69.0,54.0,-100.00,SW,225,1.0,-999.0,59,-99.99,,,-99.99,551.000000,,2013-08-16 15:00:00,
2013-08-16 11:43:00,69.0,54.0,-100.00,SW,225,1.0,-999.0,59,-99.99,,,-99.99,551.000000,,2013-08-16 15:43:00,
2013-08-16 11:56:00,69.0,54.0,-100.00,SW,225,1.0,-999.0,59,-99.99,,,-99.99,551.000000,,2013-08-16 15:56:00,
2013-08-16 12:00:00,71.0,53.0,-100.00,SSW,202,1.0,-999.0,53,-99.99,,,-99.99,676.280029,,2013-08-16 16:00:00,
2013-08-16 12:44:00,71.0,53.0,-100.00,SSW,202,1.0,-999.0,53,-99.99,,,-99.99,676.280029,,2013-08-16 16:44:00,
2013-08-16 12:57:00,71.0,53.0,-100.00,SSW,202,1.0,-999.0,53,-99.99,,,-99.99,676.280029,,2013-08-16 16:57:00,
2013-08-16 13:00:00,73.0,52.0,-100.00,SSW,202,1.0,-999.0,46,-99.99,,,-99.99,789.960022,,2013-08-16 17:00:00,
2013-08-16 13:47:00,73.0,52.0,-100.00,SSW,202,1.0,-999.0,46,-99.99,,,-99.99,789.960022,,2013-08-16 17:47:00,
2013-08-16 14:00:00,73.0,51.0,-100.00,SW,225,2.0,-999.0,45,-99.99,,,-99.99,605.520020,,2013-08-16 18:00:00,
2013-08-16 14:50:00,-999.0,-99.9,-100.00,SW,225,2.0,-999.0,45,-99.99,,,-99.99,605.520020,,2013-08-16 18:50:00,
2013-08-16 15:00:00,75.0,50.0,-100.00,West,270,2.0,-999.0,41,-99.99,,,-99.99,794.599976,,2013-08-16 19:00:00,
2013-08-16 15:46:00,75.0,50.0,-100.00,West,270,2.0,-999.0,41,-99.99,,,-99.99,794.599976,,2013-08-16 19:46:00,
2013-08-16 15:55:00,75.0,50.0,-100.00,West,270,2.0,-999.0,41,-99.99,,,-99.99,794.599976,,2013-08-16 19:55:00,
2013-08-16 16:00:00,76.0,50.0,-100.00,SW,225,2.0,-999.0,39,-99.99,,,-99.99,743.559998,,2013-08-16 20:00:00,
2013-08-16 16:44:00,76.0,50.0,-100.00,SW,225,2.0,-999.0,39,-99.99,,,-99.99,743.559998,,2013-08-16 20:44:00,
2013-08-16 16:52:00,76.0,50.0,-100.00,SW,225,2.0,-999.0,39,-99.99,,,-99.99,743.559998,,2013-08-16 20:52:00,
2013-08-16 17:00:00,76.0,50.0,-100.00,SW,225,2.0,-999.0,39,-99.99,,,-99.99,562.599976,,2013-08-16 21:00:00,
2013-08-16 17:40:00,-999.0,-99.9,-100.00,SW,225,2.0,-999.0,-999,-99.99,,,-99.99,,,2013-08-16 21:40:00,
2013-08-16 17:54:00,76.0,50.0,-100.00,SW,225,2.0,-999.0,39,-99.99,,,-99.99,562.599976,,2013-08-16 21:54:00,
2013-08-16 18:00:00,77.0,50.0,-100.00,SSW,202,1.0,-999.0,39,-99.99,,,-99.99,468.640015,,2013-08-16 22:00:00,
2013-08-16 18:43:00,77.0,50.0,-100.00,SSW,202,1.0,-999.0,39,-99.99,,,-99.99,468.640015,,2013-08-16 22:43:00,
2013-08-16 18:52:00,77.0,50.0,-100.00,SSW,202,1.0,-999.0,39,-99.99,,,-99.99,468.640015,,2013-08-16 22:52:00,
2013-08-16 19:00:00,74.0,52.0,-100.00,ESE,112,1.0,-999.0,45,-99.99,,,-99.99,198.360001,,2013-08-16 23:00:00,
2013-08-16 19:42:00,74.0,52.0,-100.00,ESE,112,1.0,-999.0,45,-99.99,,,-99.99,198.360001,,2013-08-16 23:42:00,
2013-08-16 19:52:00,74.0,52.0,-100.00,ESE,112,1.0,-999.0,45,-99.99,,,-99.99,198.360001,,2013-08-16 23:52:00,
2013-08-16 20:00:00,74.0,54.0,-100.00,SW,225,0.0,-999.0,49,-99.99,,,-99.99,116.000000,,2013-08-17 00:00:00,
2013-08-16 20:42:00,74.0,54.0,-100.00,SW,225,0.0,-999.0,49,-99.99,,,-99.99,116.000000,,2013-08-17 00:42:00,
2013-08-16 20:52:00,74.0,54.0,-100.00,SW,225,0.0,-999.0,49,-99.99,,,-99.99,116.000000,,2013-08-17 00:52:00,
2013-08-16 21:00:00,68.0,55.0,-100.00,North,0,0.0,-999.0,64,-99.99,,,-99.99,11.600000,,2013-08-17 01:00:00,
2013-08-16 21:42:00,68.0,55.0,-100.00,North,0,0.0,-999.0,64,-99.99,,,-99.99,11.600000,,2013-08-17 01:42:00,
2013-08-16 21:52:00,68.0,55.0,-100.00,North,0,0.0,-999.0,64,-99.99,,,-99.99,11.600000,,2013-08-17 01:52:00,
2013-08-16 22:00:00,65.0,54.0,-100.00,South,180,0.0,-999.0,68,-99.99,,,-99.99,0.000000,,2013-08-17 02:00:00,
2013-08-16 22:42:00,65.0,54.0,-100.00,South,180,0.0,-999.0,68,-99.99,,,-99.99,0.000000,,2013-08-17 02:42:00,
2013-08-16 22:52:00,65.0,54.0,-100.00,South,180,0.0,-999.0,68,-99.99,,,-99.99,0.000000,,2013-08-17 02:52:00,
2013-08-16 23:00:00,63.0,54.0,-100.00,SSW,202,0.0,-999.0,72,-99.99,,,-99.99,0.000000,,2013-08-17 03:00:00,
2013-08-16 23:43:00,63.0,54.0,-100.00,SSW,202,0.0,-999.0,72,-99.99,,,-99.99,0.000000,,2013-08-17 03:43:00,
2013-08-16 23:53:00,63.0,54.0,-100.00,SSW,202,0.0,-999.0,72,-99.99,,,-99.99,0.000000,,2013-08-17 03:53:00,